| time (UTC) | temp F | wind direction | speed MPH | gust MPH | rain 1hr in | rain 24hr in | rain mn in | humidity % | barometer mb |
| 20260903121511 | 62 | 235 | 1.0 | 0.0 | 0.00 | 0.00 | 0.02 | 94 | 1006.2 |
| 20260903120009 | 62 | 224 | 0.0 | 0.0 | 0.00 | 0.00 | 0.02 | 94 | 1006.3 |
| 20260903114508 | 62 | 188 | 0.0 | 0.0 | 0.00 | 0.00 | 0.02 | 94 | 1006.4 |
| 20260903113005 | 61 | 175 | 0.0 | 0.0 | 0.00 | 0.00 | 0.02 | 94 | 1006.6 |
| 20260903111503 | 61 | 169 | 0.0 | 0.0 | 0.00 | 0.00 | 0.02 | 94 | 1006.7 |
| 20260903110001 | 61 | 142 | 0.0 | 0.0 | 0.00 | 0.00 | 0.02 | 94 | 1007.0 |
| 20260903104600 | 61 | 169 | 0.0 | 0.0 | 0.00 | 0.00 | 0.02 | 93 | 1007.2 |
| 20260903103058 | 61 | 169 | 0.0 | 0.0 | 0.00 | 0.00 | 0.02 | 93 | 1007.4 |
| 20260903101602 | 61 | 168 | 0.0 | 0.0 | 0.00 | 0.00 | 0.01 | 93 | 1007.5 |
| 20260903100055 | 61 | 168 | 1.0 | 0.0 | 0.00 | 0.00 | 0.01 | 94 | 1007.9 |
| 20260903094639 | 61 | 231 | 0.0 | 0.0 | 0.00 | 0.00 | 0.01 | 94 | 1008.1 |
| 20260903093052 | 61 | 227 | 0.0 | 0.0 | 0.00 | 0.00 | 0.01 | 94 | 1008.3 |
| 20260903091549 | 60 | 227 | 0.0 | 0.0 | 0.00 | 0.00 | 0.01 | 93 | 1008.5 |
| 20260903090049 | 60 | 227 | 0.0 | 0.0 | 0.00 | 0.00 | 0.01 | 93 | 1008.8 |
| 20260903084546 | 60 | 227 | 0.0 | 0.0 | 0.00 | 0.00 | 0.01 | 93 | 1008.9 |
| 20260903083045 | 60 | 225 | 0.0 | 0.0 | 0.00 | 0.00 | 0.01 | 93 | 1009.0 |
| 20260903081544 | 60 | 223 | 0.0 | 0.0 | 0.00 | 0.00 | 0.01 | 94 | 1009.1 |
| 20260903080055 | 60 | 222 | 0.0 | 0.0 | 0.00 | 0.00 | 0.01 | 93 | 1009.2 |
| 20260903074541 | 60 | 226 | 1.0 | 0.0 | 0.00 | 0.00 | 0.01 | 93 | 1009.4 |
| 20260903073043 | 61 | 233 | 0.0 | 0.0 | 0.00 | 0.00 | 0.01 | 93 | 1009.6 |
| 20260903071538 | 61 | 233 | 0.0 | 0.0 | 0.00 | 0.00 | 0.01 | 93 | 1009.7 |
| 20260903070036 | 61 | 234 | 1.0 | 0.0 | 0.00 | 0.00 | 0.01 | 93 | 1009.8 |
| 20260903064536 | 61 | 218 | 0.0 | 0.0 | 0.00 | 0.00 | 0.01 | 93 | 1010.0 |
| 20260903063034 | 61 | 227 | 0.0 | 0.0 | 0.00 | 0.00 | 0.01 | 94 | 1010.0 |
| 20260903061532 | 61 | 228 | 1.0 | 0.0 | 0.00 | 0.00 | 0.01 | 93 | 1010.2 |
| 20260903060030 | 60 | 234 | 1.0 | 0.0 | 0.00 | 0.00 | 0.01 | 94 | 1010.2 |
| 20260903054527 | 60 | 227 | 1.0 | 0.0 | 0.00 | 0.00 | 0.01 | 94 | 1010.4 |
| 20260903053024 | 59 | 227 | 0.0 | 0.0 | 0.00 | 0.00 | 0.01 | 93 | 1010.6 |
| 20260903051521 | 58 | 227 | 0.0 | 0.0 | 0.00 | 0.00 | 0.01 | 93 | 1010.6 |
| 20260903050025 | 58 | 228 | 0.0 | 0.0 | 0.00 | 0.00 | 0.01 | 93 | 1010.8 |
| 20260903044523 | 58 | 228 | 0.0 | 0.0 | 0.00 | 0.00 | 0.01 | 93 | 1010.9 |
| 20260903043022 | 58 | 228 | 0.0 | 0.0 | 0.00 | 0.00 | 0.01 | 92 | 1011.1 |
| 20260903041517 | 58 | 228 | 0.0 | 0.0 | 0.00 | 0.00 | 0.01 | 92 | 1011.3 |
| 20260903040016 | 58 | 228 | 0.0 | 0.0 | 0.00 | 0.00 | 0.01 | 92 | 1011.4 |
| 20260903034514 | 58 | 228 | 0.0 | 0.0 | 0.00 | 0.00 | 0.01 | 92 | 1011.5 |
| 20260903033012 | 58 | 228 | 0.0 | 0.0 | 0.00 | 0.00 | 0.01 | 92 | 1011.7 |
| 20260903031511 | 58 | 228 | 0.0 | 0.0 | 0.00 | 0.00 | 0.01 | 92 | 1011.7 |
| 20260903030010 | 58 | 228 | 0.0 | 0.0 | 0.00 | 0.00 | 0.01 | 92 | 1011.8 |
| 20260903024512 | 58 | 227 | 0.0 | 0.0 | 0.00 | 0.00 | 0.01 | 91 | 1011.9 |
| 20260903023008 | 57 | 228 | 0.0 | 0.0 | 0.00 | 0.00 | 0.01 | 91 | 1012.0 |
| 20260903021507 | 57 | 227 | 0.0 | 0.0 | 0.00 | 0.00 | 0.01 | 91 | 1012.1 |
| 20260903020005 | 57 | 227 | 0.0 | 0.0 | 0.00 | 0.00 | 0.01 | 91 | 1012.3 |
| 20260903014504 | 58 | 227 | 0.0 | 0.0 | 0.00 | 0.00 | 0.01 | 91 | 1012.5 |
| 20260903013002 | 57 | 227 | 0.0 | 0.0 | 0.00 | 0.00 | 0.00 | 91 | 1012.6 |
| 20260903011502 | 57 | 228 | 0.0 | 0.0 | 0.00 | 0.00 | 0.00 | 90 | 1012.6 |
| 20260903010003 | 58 | 228 | 0.0 | 0.0 | 0.00 | 0.00 | 0.00 | 90 | 1012.6 |
| 20260903004501 | 58 | 228 | 0.0 | 0.0 | 0.00 | 0.00 | 0.00 | 90 | 1012.6 |
| 20260903003100 | 57 | 228 | 0.0 | 0.0 | 0.00 | 0.00 | 0.00 | 90 | 1012.7 |
| 20260903001606 | 57 | 228 | 0.0 | 0.0 | 0.00 | 0.00 | 0.00 | 90 | 1012.8 |
| 20260903000100 | 57 | 228 | 0.0 | 0.0 | 0.00 | 0.00 | 0.00 | 90 | 1012.8 |
| 20260902234558 | 57 | 226 | 0.0 | 0.0 | 0.00 | 0.00 | 0.00 | 91 | 1012.8 |
| 20260902233057 | 57 | 221 | 0.0 | 0.0 | 0.00 | 0.00 | 0.00 | 90 | 1012.9 |
| 20260902231555 | 57 | 219 | 0.0 | 0.0 | 0.00 | 0.00 | 0.00 | 90 | 1013.0 |
| 20260902230059 | 57 | 219 | 0.0 | 0.0 | 0.00 | 0.00 | 0.00 | 91 | 1013.1 |
| 20260902224558 | 57 | 220 | 0.0 | 0.0 | 0.00 | 0.00 | 0.00 | 91 | 1013.1 |
| 20260902223055 | 57 | 262 | 0.0 | 0.0 | 0.00 | 0.00 | 0.00 | 91 | 1013.1 |
| 20260902221554 | 57 | 263 | 0.0 | 0.0 | 0.00 | 0.00 | 0.00 | 91 | 1013.1 |
| 20260902220056 | 58 | 263 | 0.0 | 0.0 | 0.00 | 0.00 | 0.00 | 91 | 1013.0 |
| 20260902214549 | 58 | 263 | 0.0 | 0.0 | 0.00 | 0.00 | 0.02 | 92 | 1012.9 |
| 20260902213050 | 58 | 263 | 0.0 | 0.0 | 0.00 | 0.00 | 0.02 | 92 | 1012.9 |
| 20260902211548 | 59 | 263 | 0.0 | 0.0 | 0.00 | 0.00 | 0.02 | 92 | 1012.8 |
| 20260902210055 | 59 | 263 | 0.0 | 0.0 | 0.00 | 0.00 | 0.02 | 92 | 1012.8 |
| 20260902204548 | 59 | 227 | 0.0 | 0.0 | 0.00 | 0.00 | 0.02 | 92 | 1012.8 |
| 20260902203048 | 59 | 226 | 0.0 | 0.0 | 0.00 | 0.00 | 0.02 | 92 | 1012.7 |
| 20260902201548 | 59 | 249 | 0.0 | 0.0 | 0.00 | 0.00 | 0.02 | 91 | 1012.9 |
| 20260902200048 | 59 | 229 | 0.0 | 0.0 | 0.00 | 0.00 | 0.02 | 91 | 1012.9 |
| 20260902194547 | 59 | 227 | 1.0 | 0.0 | 0.00 | 0.00 | 0.02 | 91 | 1013.0 |
| 20260902193046 | 59 | 225 | 0.0 | 0.0 | 0.00 | 0.00 | 0.02 | 91 | 1012.9 |
| 20260902191555 | 59 | 219 | 1.0 | 0.0 | 0.00 | 0.00 | 0.02 | 90 | 1012.9 |
| 20260902190053 | 59 | 228 | 1.0 | 0.0 | 0.00 | 0.00 | 0.02 | 90 | 1013.0 |
| 20260902184543 | 60 | 221 | 1.0 | 0.0 | 0.00 | 0.00 | 0.02 | 90 | 1012.9 |
| 20260902183043 | 60 | 214 | 2.0 | 0.0 | 0.00 | 0.00 | 0.02 | 90 | 1012.6 |
| 20260902181549 | 60 | 232 | 1.0 | 0.0 | 0.00 | 0.00 | 0.02 | 89 | 1012.5 |
| 20260902180044 | 61 | 227 | 1.0 | 0.0 | 0.00 | 0.00 | 0.02 | 89 | 1012.6 |
| 20260902174544 | 61 | 223 | 1.0 | 0.0 | 0.00 | 0.00 | 0.02 | 89 | 1012.5 |
| 20260902173042 | 61 | 234 | 2.0 | 0.0 | 0.00 | 0.00 | 0.02 | 89 | 1012.6 |
| 20260902171603 | 61 | 227 | 1.0 | 0.0 | 0.00 | 0.00 | 0.02 | 89 | 1012.6 |
| 20260902170039 | 61 | 240 | 2.0 | 0.0 | 0.00 | 0.00 | 0.02 | 89 | 1012.5 |
| 20260902164537 | 61 | 244 | 2.0 | 0.0 | 0.00 | 0.00 | 0.02 | 89 | 1012.7 |
| 20260902163036 | 62 | 249 | 2.0 | 0.0 | 0.00 | 0.00 | 0.02 | 88 | 1012.8 |
| 20260902161539 | 62 | 231 | 3.0 | 0.0 | 0.00 | 0.00 | 0.02 | 89 | 1012.9 |
| 20260902160041 | 61 | 239 | 2.0 | 0.0 | 0.00 | 0.00 | 0.02 | 89 | 1012.8 |
| 20260902154536 | 62 | 216 | 1.0 | 0.0 | 0.00 | 0.00 | 0.02 | 88 | 1012.8 |
| 20260902153033 | 62 | 234 | 1.0 | 0.0 | 0.00 | 0.00 | 0.02 | 89 | 1012.8 |
| 20260902151533 | 61 | 232 | 3.0 | 0.0 | 0.00 | 0.00 | 0.02 | 89 | 1013.0 |
| 20260902150031 | 62 | 219 | 2.0 | 0.0 | 0.00 | 0.00 | 0.02 | 89 | 1013.1 |
| 20260902144534 | 62 | 247 | 2.0 | 0.0 | 0.00 | 0.00 | 0.02 | 89 | 1013.0 |
| 20260902143031 | 62 | 234 | 2.0 | 0.0 | 0.00 | 0.00 | 0.02 | 90 | 1013.0 |
| 20260902141537 | 61 | 223 | 2.0 | 0.0 | 0.00 | 0.00 | 0.02 | 90 | 1013.1 |
| 20260902140028 | 61 | 226 | 1.0 | 0.0 | 0.00 | 0.00 | 0.02 | 89 | 1013.1 |
| 20260902134528 | 61 | 222 | 1.0 | 0.0 | 0.00 | 0.00 | 0.02 | 88 | 1013.2 |
| 20260902133031 | 60 | 245 | 0.0 | 0.0 | 0.00 | 0.00 | 0.02 | 88 | 1013.2 |
| 20260902131527 | 60 | 246 | 0.0 | 0.0 | 0.00 | 0.00 | 0.02 | 86 | 1013.3 |
| 20260902130032 | 61 | 255 | 0.0 | 0.0 | 0.00 | 0.00 | 0.02 | 84 | 1013.5 |
| 20260902124526 | 65 | 261 | 4.0 | 0.0 | 0.00 | 0.00 | 0.02 | 80 | 1013.6 |
| 20260902123026 | 67 | 234 | 3.0 | 0.0 | 0.00 | 0.00 | 0.02 | 80 | 1013.1 |